Regional Weather Roundup
Issued by NWS

Home | Current Version | Previous Version | Text Only | Print | Product List | Glossary On
Versions: 1 2 3 4 5 6 7 8 9 10 11 12 13 14 15 16 17 18 19 20 21 22 23 24 25 26 27 28 29 30 31 32 33 34 35 36 37 38 39 40 41 42 43 44 45 46 47 48 49 50
000
ASUS43 KLOT 181708
RWRIL

ILLINOIS REGIONAL WEATHER ROUNDUP
NATIONAL WEATHER SERVICE CHICAGO/ROMEOVILLE IL
1100 AM CST SAT NOV 18 2017

NOTE: "FAIR" INDICATES FEW OR NO CLOUDS BELOW 12,000 FEET WITH NO
SIGNIFICANT WEATHER AND/OR OBSTRUCTIONS TO VISIBILITY.

* THESE STATIONS ARE NOT UNDER NWS QUALITY CONTROL. THEY ALSO MAY NOT
  REPORT WEATHER SUCH AS PRECIPITATION OR FOG.

ILZ001-002-007-009-015-016-024-181800-
NORTHWEST ILLINOIS

CITY           SKY/WX    TMP DP  RH WIND       PRES   REMARKS
MOLINE         LGT RAIN  39  35  86 N10G17    29.62R WCI  32
STERLING*        N/A    N/A N/A N/A MISG        N/A
SAVANNA*       DRIZZLE   38  35  90 N14       29.61R WCI  29
$$

ILZ003-004-008-010-011-017-018-181800-
NORTH CENTRAL ILLINOIS

CITY           SKY/WX    TMP DP  RH WIND       PRES   REMARKS
ROCKFORD       LGT RAIN  36  33  89 N17G23    29.56S WCI  26
FREEPORT*      LGT RAIN  35  34  96 N15       29.59R WCI  25
ROCHELLE*      LGT RAIN  35  34  96 N15G23    29.53R WCI  25
DE KALB*       LGT RAIN  35  34  96 N21G26    29.51R WCI  24
PERU*          RAIN      37  35  92 N17G25    29.50S WCI  27
$$

ILZ005-006-012>014-019>023-181800-
NORTHEAST ILLINOIS

CITY           SKY/WX    TMP DP  RH WIND       PRES   REMARKS
CHICAGO-OHARE  LGT RAIN  39  35  86 N17       29.47S WCI  30
CHICAGO-MIDWAY LGT RAIN  41  39  93 N21G32    29.45F
AURORA         RAIN      38  36  92 N15G21    29.47S FOG     WCI  29
LANSING*       HVY RAIN  42  42 100 N17G25    29.41F
JOLIET*        RAIN      41  39  94 N18       29.41F
WAUKEGAN       LGT RAIN  35  34  96 N10G18    29.48S FOG     WCI  27
DUPAGE AIRPORT RAIN      37  36  96 N18       29.47F FOG     WCI  27
KANKAKEE*      LGT RAIN  43  42  97 N17G23    29.39F
WHEELING       LGT RAIN  38  37  97 N12       29.50R FOG     WCI  30
MORRIS*        RAIN      40  38  92 N12G20    29.43F
ROMEOVILLE*    RAIN      39  37  93 N17G25    29.44F WCI  30
NORTHERLY ISL    N/A     41  38  89 N21         N/A
$$

LMZ740>746-181800-
SOUTHERN LAKE MICHIGAN

STATION/POSITION SKY/WX   TEMP    WIND        PRES    VSBY  WAVE
                          AIR SEA DIR/SP/G                  HT/PER
                          (F)     (DEG/KT/KT) (MB)    (MI)  (FT/S)
SOUTHERN BUOY              44 49   10/ 25/ 29  997.9          3/ 5
HARRISON CRIB              42     350/ 33/ 36   N/A
BURNHAM HARBOR             40     340/ 21/ 25   N/A
BURNS HARBOR               45     360/ 19/ 28  996.6F
MICHIGAN CITY              45      10/ 28/ 31   N/A
$$

ILZ025>027-034>036-040-047-049-050-058-095>099-181800-
WEST-CENTRAL ILLINOIS

CITY           SKY/WX    TMP DP  RH WIND       PRES   REMARKS
QUINCY         RAIN      40  38  93 NW24      29.60R FOG
GALESBURG*     RAIN      38  38  99 N17G25    29.58F WCI  29
MACOMB*        LGT RAIN  39  39  97 N20G26    29.60R WCI  30
JACKSONVILLE*  CLOUDY    42  40  93 NW22      29.50R
PITTSFIELD*    RAIN      42  41  95 NW21G28   29.56R
$$

ILZ028>032-037-038-041>044-048-051>054-059>061-181800-
CENTRAL ILLINOIS

CITY           SKY/WX    TMP DP  RH WIND       PRES   REMARKS
PONTIAC        LGT RAIN  42  41  98 N25G35    29.43R
BLOOMINGTON    LGT RAIN  41  40  96 N26G32    29.42R
DECATUR        CLOUDY    48  46  93 N22G30    29.37R
PEORIA         LGT RAIN  40  38  93 N16G31    29.47S
LACON*         RAIN      39  38  97 N15G22    29.49S WCI  30
LINCOLN*       RAIN      43  42  95 N20G31    29.43R
SPRINGFIELD    CLOUDY    45  43  93 N23G31    29.44R
TAYLORVILLE    CLOUDY    47  45  93 N26G36    29.39R
$$

ILZ033-039-045-046-055>057-062-063-181800-
EAST-CENTRAL ILLINOIS

CITY           SKY/WX    TMP DP  RH WIND       PRES   REMARKS
CHAMPAIGN      CLOUDY    49  47  93 N29G35    29.33F
DANVILLE*      HVY RAIN  50  50  98 N21G26    29.28R
RANTOUL*       CLOUDY    47  46  95 N23G29    29.34F
MATTOON        RAIN      65  61  87 W24G35    29.29R FOG
PARIS*         CLOUDY    64  62  91 SW25G32   29.28F
$$

ILZ079-100>102-181800-
SOUTHWEST ILLINOIS

CITY           SKY/WX    TMP DP  RH WIND       PRES   REMARKS
ALTON          CLOUDY    48  45  87 NW21G32   29.44R
BELLEVILLE     LGT RAIN  55  52  88 NW16G29   29.36R FOG
CAHOKIA*       CLOUDY    54  49  83 NW23G37   29.43R
SPARTA*        PTSUNNY   69  64  83 S14       29.35F
$$

ILZ064>066-069>071-074>076-080>082-084>086-088>090-092>094-181800-
SOUTH-CENTRAL ILLINOIS

CITY           SKY/WX    TMP DP  RH WIND       PRES   REMARKS
CARBONDALE     CLOUDY    67  63  87 S21G31    29.41F
CAIRO*         CLOUDY    68  62  83 S22G29    29.47F
EFFINGHAM*     CLOUDY    69  63  82 S15G29    29.31F
MARION         CLOUDY    68  66  94 S20G26    29.43F
MT. VERNON     CLOUDY    66  62  87 S28       29.37F
CENTRALIA*     PTSUNNY   68  64  85 S23G31    29.33F
SALEM*         PTSUNNY   70  62  76 S23G32    29.32F
METROPOLIS*    LGT RAIN  64  62  93 S9        29.50F
$$

ILZ067-068-072-073-078-083-087-091-181800-
SOUTHEAST ILLINOIS

CITY           SKY/WX    TMP DP  RH WIND       PRES   REMARKS
LAWRENCEVILLE  LGT RAIN  66  61  84 SW31G39   29.37F
FLORA*         LGT RAIN  67  63  85 S23G31    29.34F
FAIRFIELD*     CLOUDY    67  63  87 S14       29.37F
HARRISBURG*    LGT RAIN  66  63  88 S17G32    29.44F
ROBINSON*      CLOUDY    66  61  82 SW33      29.33F
$$

ABBREVIATIONS USED IN REMARKS
   TC - TEMPERATURE IN CELSIUS
  WCI - WIND CHILL INDEX
   HX - HEAT INDEX
  VSB - VISIBILITY
$$




USA.gov is the U.S. government's official web portal to all federal, state and local government web resources and services.